FW7622 Weather Reports


Display with metric or nautical units.
time (UTC)temp
F
wind
direction
speed
MPH
gust
MPH
rain 1hr
in
rain 24hr
in
rain mn
in
humidity
%
barometer
mb
20260904034555 71 173 0.0 0.0 0.00 0.68 0.68 99 1010.4
20260904034051 71 170 0.0 0.0 0.00 0.68 0.68 99 1010.4
20260904033546 71 171 0.0 0.0 0.00 0.68 0.68 99 1010.7
20260904033044 71 171 0.0 0.0 0.00 0.68 0.68 99 1010.7
20260904032539 71 176 0.0 0.0 0.00 0.68 0.68 99 1010.4
20260904032038 71 175 0.0 0.0 0.00 0.68 0.68 99 1010.4
20260904031537 71 155 0.0 0.0 0.00 0.68 0.68 99 1010.4
20260904031034 71 171 0.0 0.0 0.00 0.68 0.68 99 1010.4
20260904030529 71 174 0.0 0.0 0.00 0.68 0.68 99 1010.4
20260904030025 71 176 0.0 0.0 0.00 0.68 0.68 99 1010.7
20260904025520 71 171 0.0 0.0 0.00 0.68 0.68 99 1010.7
20260904025020 71 173 0.0 0.0 0.00 0.68 0.68 99 1010.7
20260904024516 71 174 0.0 0.0 0.00 0.68 0.68 99 1010.4
20260904024012 71 172 0.0 0.0 0.00 0.68 0.68 99 1010.4
20260904023508 71 154 0.0 0.0 0.00 0.68 0.68 99 1010.4
20260904023003 71 158 0.0 0.0 0.00 0.68 0.68 99 1010.4
20260904022458 71 165 0.0 0.0 0.00 0.68 0.68 99 1010.4
20260904021955 71 169 0.0 0.0 0.00 0.68 0.68 99 1010.4
20260904021450 71 170 0.0 0.0 0.00 0.68 0.68 99 1010.4
20260904020950 71 173 0.0 0.0 0.00 0.68 0.68 99 1010.4
20260904020446 71 172 0.0 0.0 0.00 0.68 0.68 99 1010.4
20260904015943 71 172 0.0 0.0 0.00 0.68 0.68 99 1010.4
20260904015439 71 171 0.0 0.0 0.00 0.68 0.68 99 1010.4
20260904014938 71 172 0.0 0.0 0.00 0.68 0.68 99 1010.4
20260904014433 71 171 0.0 0.0 0.00 0.68 0.68 99 1010.7
20260904013929 71 188 0.0 0.0 0.00 0.68 0.68 99 1010.4
20260904013425 71 191 0.0 0.0 0.00 0.68 0.68 99 1010.4
20260904012921 71 202 0.0 0.0 0.00 0.68 0.68 99 1010.4
20260904012420 71 178 0.0 0.0 0.00 0.68 0.68 99 1010.0
20260904011915 71 164 0.0 1.0 0.00 0.68 0.68 99 1010.0
20260904011410 71 170 0.0 0.0 0.00 0.68 0.68 99 1010.0
20260904010905 71 177 0.0 0.0 0.00 0.68 0.68 99 1010.0
20260904010402 71 166 0.0 0.0 0.00 0.68 0.68 99 1010.0
20260904005856 71 157 0.0 0.0 0.00 0.68 0.68 99 1009.7
20260904005352 71 167 0.0 0.0 0.00 0.68 0.68 99 1010.0
20260904004846 71 174 0.0 0.0 0.00 0.68 0.68 99 1010.0
20260904004343 71 174 0.0 0.0 0.00 0.68 0.68 99 1009.7
20260904003838 72 171 0.0 0.0 0.00 0.68 0.68 99 1010.0
20260904003333 72 177 0.0 0.0 0.00 0.68 0.68 99 1009.4
20260904002828 72 184 0.0 0.0 0.00 0.68 0.68 99 1009.7
20260904002325 72 168 0.0 0.0 0.00 0.68 0.68 99 1009.7
20260904001824 73 173 0.0 0.0 0.00 0.68 0.68 99 1009.4
20260904001319 73 172 0.0 0.0 0.00 0.68 0.68 99 1009.4
20260904000814 73 169 0.0 0.0 0.00 0.68 0.68 99 1009.4
20260904000314 73 172 0.0 0.0 0.00 0.68 0.68 99 1009.7
20260903235808 73 178 0.0 0.0 0.00 0.68 0.68 99 1009.7
20260903235305 73 181 0.0 0.0 0.00 0.68 0.68 99 1009.7
20260903234803 73 186 0.0 0.0 0.00 0.68 0.68 99 1009.4
20260903234300 73 156 0.0 0.0 0.00 0.68 0.68 99 1009.7
20260903233756 73 185 0.0 0.0 0.00 0.68 0.68 99 1009.4
20260903233252 73 168 0.0 0.0 0.00 0.68 0.68 99 1009.7
20260903232750 73 187 0.0 0.0 0.00 0.68 0.68 99 1009.4
20260903232246 73 189 0.0 1.0 0.00 0.68 0.68 99 1009.4
20260903231739 73 173 0.0 0.0 0.00 0.68 0.68 99 1009.4
20260903231235 73 157 0.0 1.0 0.00 0.68 0.68 99 1009.4
20260903230730 73 131 0.0 0.0 0.00 0.68 0.68 99 1009.4
20260903230225 73 180 0.0 0.0 0.00 0.68 0.68 99 1009.4
20260903225722 73 187 0.0 0.0 0.02 0.68 0.68 99 1009.7
20260903225218 73 179 0.0 0.0 0.03 0.68 0.68 99 1009.4
20260903224714 73 167 1.0 1.0 0.04 0.68 0.68 99 1009.4
20260903224210 73 116 1.0 1.0 0.06 0.68 0.68 99 1009.7
20260903223705 72 180 1.0 1.0 0.08 0.68 0.68 99 1009.4
20260903223204 72 163 0.0 1.0 0.08 0.68 0.68 99 1009.4
20260903222704 72 182 0.0 0.0 0.08 0.68 0.68 99 1009.4
20260903222203 72 187 3.0 3.0 0.09 0.68 0.68 99 1009.7
20260903221657 71 160 3.0 3.0 0.09 0.68 0.68 99 1009.7
20260903221156 71 139 2.0 2.0 0.10 0.68 0.68 99 1009.4
20260903220655 71 231 1.0 1.0 0.13 0.68 0.68 99 1009.7
20260903220149 70 154 0.0 0.0 0.11 0.66 0.66 99 1010.0
20260903215648 70 22 1.0 2.0 0.10 0.65 0.65 99 1009.7
20260903215144 70 182 0.0 0.0 0.09 0.64 0.64 99 1009.7
20260903214642 70 157 0.0 1.0 0.07 0.62 0.62 99 1010.0
20260903214138 70 170 1.0 1.0 0.05 0.60 0.60 99 1010.4
20260903213632 70 197 0.0 0.0 0.05 0.60 0.60 99 1010.4
20260903213129 71 162 0.0 1.0 0.05 0.60 0.60 99 1010.4
20260903212624 71 160 0.0 1.0 0.04 0.59 0.59 99 1010.4
20260903212119 71 172 0.0 0.0 0.04 0.59 0.59 99 1009.4
20260903211614 71 146 2.0 2.0 0.03 0.58 0.58 99 1009.4
20260903211112 71 178 0.0 1.0 0.00 0.55 0.55 99 1009.7
20260903210606 71 185 0.0 0.0 0.00 0.55 0.55 99 1010.4
20260903205601 72 192 0.0 0.0 0.00 0.55 0.55 99 1010.4
20260903205055 72 169 0.0 1.0 0.00 0.55 0.55 99 1010.0
20260903204552 72 167 0.0 1.0 0.00 0.55 0.55 99 1010.4
20260903204052 72 177 0.0 1.0 0.00 0.55 0.55 99 1010.7
20260903203547 72 187 0.0 0.0 0.00 0.55 0.55 99 1010.7
20260903203042 72 188 1.0 1.0 0.00 0.55 0.55 99 1010.4
20260903202538 72 149 1.0 1.0 0.00 0.55 0.55 99 1010.0
20260903202033 72 167 0.0 1.0 0.00 0.55 0.55 99 1010.4
20260903201527 72 174 0.0 0.0 0.00 0.55 0.55 99 1010.7
20260903201027 72 177 0.0 0.0 0.00 0.55 0.55 99 1010.7
20260903200522 72 167 0.0 0.0 0.00 0.55 0.55 99 1011.1
20260903200017 72 161 1.0 1.0 0.00 0.55 0.55 99 1011.5
20260903195513 73 184 0.0 0.0 0.00 0.55 0.55 99 1011.5
20260903195008 73 141 1.0 1.0 0.00 0.55 0.55 98 1010.7
20260903194503 74 180 0.0 0.0 0.00 0.55 0.55 97 1010.7
20260903193959 75 191 0.0 0.0 0.00 0.55 0.55 97 1010.7
20260903193455 75 173 0.0 0.0 0.00 0.55 0.55 97 1010.7
20260903192955 74 121 1.0 2.0 0.00 0.55 0.55 97 1010.7
20260903192453 75 20 2.0 2.0 0.00 0.55 0.55 97 1010.7
20260903191947 74 181 0.0 0.0 0.00 0.55 0.55 97 1010.4
20260903191443 74 175 2.0 2.0 0.00 0.55 0.55 98 1010.7
20260903190942 73 113 2.0 3.0 0.00 0.55 0.55 99 1011.1
20260903190437 72 186 0.0 0.0 0.00 0.55 0.55 99 1010.7
20260903185936 72 148 1.0 1.0 0.00 0.55 0.55 99 1011.1
20260903185432 72 100 1.0 2.0 0.00 0.55 0.55 99 1011.1
20260903184927 72 177 0.0 0.0 0.00 0.55 0.55 99 1011.1
20260903184424 71 178 0.0 0.0 0.00 0.55 0.55 99 1011.8
20260903183924 72 197 0.0 0.0 0.02 0.55 0.55 99 1011.5
20260903183419 71 170 0.0 0.0 0.04 0.55 0.55 99 1011.1
20260903182918 72 161 3.0 3.0 0.04 0.55 0.55 99 1011.5
20260903182417 72 173 0.0 0.0 0.04 0.55 0.55 99 1011.5
20260903181912 71 154 1.0 1.0 0.04 0.55 0.55 99 1011.8
20260903181407 71 177 0.0 0.0 0.04 0.55 0.55 99 1011.8
20260903180906 71 175 0.0 0.0 0.04 0.55 0.55 99 1011.8
20260903180401 71 142 0.0 0.0 0.04 0.55 0.55 99 1011.5
20260903175901 71 171 0.0 0.0 0.04 0.55 0.55 99 1011.8
20260903175401 72 146 1.0 1.0 0.04 0.55 0.55 99 1011.5
20260903174856 72 165 0.0 1.0 0.04 0.55 0.55 99 1011.5
20260903174351 73 168 0.0 1.0 0.03 0.54 0.54 99 1011.5
20260903173850 73 181 0.0 0.0 0.00 0.51 0.51 99 1011.8
20260903173346 73 178 0.0 0.0 0.00 0.51 0.51 98 1011.1
20260903172842 73 180 0.0 0.0 0.00 0.51 0.51 98 1011.5
20260903172336 73 181 0.0 0.0 0.00 0.51 0.51 97 1011.5
20260903171832 73 165 0.0 0.0 0.00 0.51 0.51 99 1011.5
20260903171327 73 175 0.0 1.0 0.00 0.51 0.51 99 1011.5
20260903170826 73 179 0.0 0.0 0.00 0.51 0.51 99 1011.5
20260903170321 72 173 0.0 0.0 0.00 0.51 0.51 99 1011.5
20260903165819 72 170 0.0 0.0 0.00 0.51 0.51 99 1011.8
20260903165314 72 164 0.0 0.0 0.00 0.51 0.51 99 1011.8
20260903164814 72 169 0.0 0.0 0.00 0.51 0.51 99 1012.2
20260903164310 71 184 0.0 0.0 0.00 0.51 0.51 99 1011.8
20260903163809 72 189 0.0 0.0 0.00 0.51 0.51 99 1011.8
20260903163306 72 184 0.0 0.0 0.01 0.51 0.51 99 1011.5
20260903162801 73 183 0.0 0.0 0.01 0.51 0.51 99 1011.1
20260903162258 73 175 0.0 0.0 0.01 0.51 0.51 99 1011.1
20260903161753 73 177 0.0 0.0 0.01 0.51 0.51 99 1011.5
20260903161248 73 203 0.0 0.0 0.01 0.51 0.51 99 1011.5
20260903160744 73 172 0.0 0.0 0.01 0.51 0.51 98 1011.1
20260903160243 73 165 0.0 0.0 0.01 0.51 0.51 99 1011.1
20260903155742 73 149 0.0 0.0 0.01 0.51 0.51 99 1011.1
20260903155237 73 141 0.0 0.0 0.01 0.51 0.51 99 1011.1
20260903154732 72 175 0.0 0.0 0.01 0.51 0.51 99 1011.1
20260903154228 72 188 0.0 0.0 0.01 0.51 0.51 99 1011.1
20260903153723 72 180 0.0 0.0 0.01 0.51 0.51 99 1011.1
20260903153219 72 162 0.0 1.0 0.00 0.50 0.50 99 1011.1
20260903152715 72 167 0.0 0.0 0.00 0.50 0.50 99 1010.7
20260903152212 70 143 0.0 1.0 0.00 0.50 0.50 99 1011.1
20260903151711 71 179 0.0 0.0 0.00 0.50 0.50 99 1011.1
20260903151206 72 112 0.0 1.0 0.00 0.50 0.50 99 1011.1
20260903150701 70 168 0.0 0.0 0.00 0.50 0.50 99 1011.1
20260903150156 69 183 0.0 0.0 0.01 0.50 0.50 99 1011.5
20260903145656 69 184 0.0 0.0 0.02 0.50 0.50 99 1011.1
20260903145151 70 176 0.0 0.0 0.02 0.50 0.50 99 1011.1
20260903144649 70 171 0.0 0.0 0.02 0.50 0.50 99 1011.1
20260903144146 70 183 0.0 0.0 0.02 0.50 0.50 99 1011.1
20260903143641 70 202 1.0 1.0 0.02 0.50 0.50 99 1011.1
20260903143137 70 176 0.0 0.0 0.02 0.50 0.50 99 1011.1
20260903142633 69 152 0.0 1.0 0.02 0.50 0.50 99 1011.1
20260903142129 68 126 0.0 1.0 0.02 0.50 0.50 99 1011.5
20260903141624 68 177 0.0 0.0 0.02 0.50 0.50 99 1011.5
20260903141119 68 179 1.0 1.0 0.02 0.50 0.50 99 1011.8
20260903140616 68 177 1.0 2.0 0.01 0.48 0.48 99 1011.5
20260903140111 68 175 0.0 0.0 0.02 0.48 0.48 99 1012.2
20260903135607 68 186 0.0 0.0 0.05 0.48 0.48 99 1012.2
20260903135106 68 177 0.0 0.0 0.13 0.48 0.48 99 1012.2
20260903134605 68 170 0.0 0.0 0.30 0.48 0.48 99 1011.8
20260903134101 68 174 0.0 0.0 0.35 0.48 0.48 99 1011.5
20260903133559 68 179 0.0 0.0 0.37 0.48 0.48 99 1011.5
20260903133054 68 152 0.0 0.0 0.38 0.48 0.48 99 1011.8
20260903132549 68 170 0.0 0.0 0.45 0.48 0.48 99 1012.2
20260903132044 68 159 0.0 0.0 0.48 0.48 0.48 99 1011.8
20260903131544 68 165 0.0 0.0 0.48 0.48 0.48 99 1012.2
20260903131043 68 177 0.0 0.0 0.48 0.48 0.48 99 1011.8
20260903130538 68 179 0.0 0.0 0.47 0.47 0.47 99 1012.5
20260903130033 68 178 0.0 0.0 0.45 0.45 0.45 99 1012.2
20260903125531 67 165 1.0 1.0 0.42 0.42 0.42 99 1012.5
20260903125026 67 168 0.0 0.0 0.33 0.33 0.33 99 1012.9
20260903124521 67 189 0.0 0.0 0.15 0.15 0.15 99 1013.2
20260903124020 67 177 0.0 0.0 0.12 0.12 0.12 99 1012.5
20260903123515 67 183 0.0 0.0 0.10 0.10 0.10 99 1012.5
20260903123013 67 181 0.0 0.0 0.08 0.08 0.08 99 1011.8
20260903122508 66 215 2.0 2.0 0.00 0.00 0.00 99 1012.5
20260903122008 66 153 1.0 1.0 0.00 0.00 0.00 99 1012.5
20260903121503 66 212 1.0 1.0 0.00 0.00 0.00 99 1012.5
20260903120959 66 155 0.0 1.0 0.00 0.00 0.00 99 1012.2
20260903120457 66 187 0.0 0.0 0.00 0.00 0.00 99 1011.8
20260903115956 65 194 1.0 1.0 0.00 0.00 0.00 99 1011.8
20260903115456 65 181 0.0 0.0 0.00 0.00 0.00 99 1011.5
20260903114956 65 186 0.0 0.0 0.00 0.00 0.00 99 1011.5
20260903114451 65 138 0.0 0.0 0.00 0.00 0.00 99 1011.1
20260903113947 65 176 0.0 0.0 0.00 0.00 0.00 99 1011.1
20260903113442 65 179 0.0 0.0 0.00 0.00 0.00 99 1011.1
20260903112938 65 161 0.0 0.0 0.00 0.00 0.00 99 1011.1
20260903112433 65 166 0.0 0.0 0.00 0.00 0.00 99 1011.5
20260903111932 65 173 0.0 0.0 0.00 0.00 0.00 99 1011.5
20260903111427 65 173 0.0 0.0 0.00 0.00 0.00 99 1011.5
20260903110923 65 182 0.0 0.0 0.00 0.00 0.00 99 1011.8
20260903110419 65 167 0.0 0.0 0.00 0.00 0.00 99 1011.8
20260903105914 65 185 0.0 0.0 0.00 0.00 0.00 99 1011.5
20260903105409 65 185 0.0 0.0 0.00 0.00 0.00 99 1011.5
20260903104908 65 174 0.0 0.0 0.00 0.00 0.00 99 1011.1
20260903104403 65 184 0.0 0.0 0.00 0.00 0.00 99 1010.7
20260903103900 65 183 0.0 0.0 0.00 0.00 0.00 99 1010.7
20260903103355 65 173 0.0 0.0 0.00 0.00 0.00 99 1011.1
20260903102850 65 172 0.0 0.0 0.00 0.00 0.00 99 1011.1
20260903102345 65 183 0.0 0.0 0.00 0.00 0.00 99 1010.7
20260903101845 65 178 0.0 0.0 0.00 0.00 0.00 99 1011.1
20260903101340 65 184 0.0 0.0 0.00 0.00 0.00 99 1011.1
20260903100836 65 191 0.0 0.0 0.00 0.00 0.00 99 1011.1
20260903100336 65 186 0.0 1.0 0.00 0.00 0.00 99 1010.7
20260903095832 65 186 0.0 0.0 0.00 0.00 0.00 99 1010.7
20260903095327 65 174 0.0 0.0 0.00 0.00 0.00 99 1011.1
20260903094822 65 174 0.0 0.0 0.00 0.00 0.00 99 1010.7
20260903094317 65 157 0.0 1.0 0.00 0.00 0.00 99 1010.7
20260903093812 65 155 0.0 0.0 0.00 0.00 0.00 99 1010.7
20260903093308 65 155 0.0 1.0 0.00 0.00 0.00 99 1010.7
20260903092808 65 142 0.0 0.0 0.00 0.00 0.00 99 1010.7
20260903092306 64 173 0.0 0.0 0.00 0.00 0.00 99 1010.4
20260903091802 64 140 0.0 0.0 0.00 0.00 0.00 99 1011.1
20260903091255 64 174 0.0 0.0 0.00 0.00 0.00 99 1010.7
20260903090752 64 167 0.0 0.0 0.00 0.00 0.00 99 1011.1
20260903090251 64 172 0.0 0.0 0.00 0.00 0.00 99 1011.1
20260903085750 64 177 0.0 0.0 0.00 0.00 0.00 99 1010.7
20260903085244 64 172 0.0 0.0 0.00 0.00 0.00 99 1011.1
20260903084742 64 164 0.0 0.0 0.00 0.00 0.00 99 1011.1
20260903084237 64 164 0.0 0.0 0.00 0.00 0.00 99 1011.1
20260903083733 65 175 0.0 0.0 0.00 0.00 0.00 99 1010.7
20260903083233 64 177 0.0 0.0 0.00 0.00 0.00 99 1011.1
20260903082732 65 177 0.0 0.0 0.00 0.00 0.00 99 1011.1
20260903082228 65 172 0.0 0.0 0.00 0.00 0.00 99 1011.1
20260903081728 65 159 0.0 0.0 0.00 0.00 0.00 99 1010.7
20260903081224 65 168 0.0 0.0 0.00 0.00 0.00 99 1010.7
20260903080720 65 168 0.0 0.0 0.00 0.00 0.00 99 1011.1
20260903080217 65 172 0.0 0.0 0.00 0.00 0.00 99 1010.7
20260903075716 65 168 0.0 0.0 0.00 0.00 0.00 99 1011.1
20260903075212 65 162 0.0 0.0 0.00 0.00 0.00 99 1010.7
20260903074710 65 156 0.0 0.0 0.00 0.00 0.00 99 1011.1
20260903074206 65 156 0.0 0.0 0.00 0.00 0.00 99 1011.1
20260903073701 65 155 0.0 0.0 0.00 0.00 0.00 99 1011.1
20260903073156 65 171 0.0 0.0 0.00 0.00 0.00 99 1011.1
20260903072652 65 146 0.0 0.0 0.00 0.00 0.00 99 1011.1
20260903072148 65 146 0.0 0.0 0.00 0.00 0.00 99 1011.1
20260903071644 65 166 0.0 0.0 0.00 0.00 0.00 99 1011.1
20260903071140 65 157 0.0 0.0 0.00 0.00 0.00 99 1011.1
20260903070640 65 159 0.0 0.0 0.00 0.00 0.00 99 1011.1
20260903070136 65 170 0.0 0.0 0.00 0.00 0.00 99 1011.1
20260903065635 65 170 0.0 0.0 0.00 0.00 0.00 99 1011.1
20260903065130 65 174 0.0 0.0 0.00 0.00 0.00 99 1011.5
20260903064629 65 174 0.0 0.0 0.00 0.00 0.00 99 1011.1
20260903064125 65 174 0.0 0.0 0.00 0.00 0.00 99 1011.1
20260903063620 66 174 0.0 0.0 0.00 0.00 0.00 99 1011.1
20260903063115 66 174 0.0 0.0 0.00 0.00 0.00 99 1011.5
20260903062611 66 173 0.0 0.0 0.00 0.00 0.00 99 1011.5
20260903062106 65 174 0.0 0.0 0.00 0.00 0.00 99 1011.5
20260903061601 66 174 0.0 0.0 0.00 0.00 0.00 99 1011.5
20260903061101 65 173 0.0 0.0 0.00 0.00 0.00 99 1011.8
20260903060600 65 171 0.0 0.0 0.00 0.00 0.00 99 1011.8
20260903060056 65 171 0.0 0.0 0.00 0.00 0.00 99 1011.5
20260903055553 65 160 0.0 0.0 0.00 0.00 0.00 99 1011.5
20260903055052 65 160 0.0 0.0 0.00 0.00 0.00 99 1011.8
20260903054547 65 160 0.0 0.0 0.00 0.00 0.00 99 1011.5
20260903054043 65 160 0.0 0.0 0.00 0.00 0.00 99 1011.5
20260903053538 65 160 0.0 0.0 0.00 0.00 0.00 99 1011.8
20260903053035 65 160 0.0 0.0 0.00 0.00 0.00 99 1011.5
20260903052530 65 160 0.0 0.0 0.00 0.00 0.00 99 1011.5
20260903052026 65 160 0.0 0.0 0.00 0.00 0.00 99 1011.8
20260903051525 65 160 0.0 0.0 0.00 0.00 0.00 99 1011.5
20260903051021 66 160 0.0 0.0 0.00 0.00 0.00 99 1011.8
20260903050520 66 160 0.0 0.0 0.00 0.00 0.00 99 1011.5
20260903050016 66 160 0.0 0.0 0.00 0.24 0.24 99 1011.8
20260903045510 66 160 0.0 0.0 0.00 0.24 0.24 99 1011.8
20260903045007 66 160 0.0 0.0 0.00 0.24 0.24 99 1011.8
20260903044502 66 160 0.0 0.0 0.00 0.24 0.24 99 1011.8
20260903043958 66 160 0.0 0.0 0.00 0.24 0.24 99 1011.5
20260903043453 66 160 0.0 0.0 0.00 0.24 0.24 99 1011.8
20260903042951 66 160 0.0 0.0 0.00 0.24 0.24 99 1011.5
20260903042447 66 160 0.0 0.0 0.00 0.24 0.24 99 1011.8
20260903041943 66 160 0.0 0.0 0.00 0.24 0.24 99 1011.8
20260903041439 67 160 0.0 0.0 0.00 0.24 0.24 99 1011.8
20260903040935 67 160 0.0 0.0 0.00 0.24 0.24 99 1012.2
20260903040433 67 160 0.0 0.0 0.00 0.24 0.24 99 1011.8
20260903035930 67 160 0.0 0.0 0.00 0.24 0.24 99 1011.8
20260903035425 67 160 0.0 0.0 0.00 0.24 0.24 99 1011.8
20260903034920 67 161 0.0 0.0 0.00 0.24 0.24 99 1011.8